AirNav   Pilot Hours Calculator
 
 913 users online  

8A4 Indianapolis Downtown Heliport
Indianapolis, Indiana, USA

GOING TO INDIANAPOLIS?


FAA INFORMATION EFFECTIVE 01 DECEMBER 2022

Location

FAA Identifier: 8A4
Lat/Long: 39-45-57.1550N 086-08-55.9500W
39-45.952583N 086-08.932500W
39.7658764,-86.1488750
(estimated)
Elevation: 732 ft. / 223.1 m (surveyed)
Variation: 03W (2000)
Time zone: UTC -5 (UTC -4 during Daylight Saving Time)
Zip code: 46204

Heliport Operations

Heliport use: Open to the public
Activation date: 12/1978
Control tower: no
ARTCC: INDIANAPOLIS CENTER
FSS: TERRE HAUTE FLIGHT SERVICE STATION
NOTAMs facility: HUF (NOTAM-D service available)
Attendance: MON-FRI 0800-1630, ALL SAT-SUN ON REQ
INFO - 317-955-1271; AFT HR - 317-487-5089.
Wind indicator: lighted
Segmented circle: no
Lights: ACTVT ODALS; PLASI; HIGH INTST PAD LGTS - CTAF.
Beacon: white-green-yellow (heliport)
Operates sunset to sunrise.

Heliport Communications

CTAF/UNICOM: 123.05
WX AWOS-3: 135.525 (317-955-3160)
INDIANAPOLIS APPROACH: 125.275
INDIANAPOLIS DEPARTURE: 125.275
WX ASOS at IND (7 nm SW): PHONE 317-241-0348
WX ASOS at EYE (8 nm NW): 121.575 (317-329-1754)
WX AWOS-3P at HFY (9 nm S): 118.525 (317-882-5862)
WX AWOS-3 at UMP (11 nm NE): 119.375 (317-842-3911)
WX AWOS-3 at MQJ (12 nm E): 124.175 (317-335-3037)
WX AWOS-3P at 2R2 (15 nm W): 118.025 (317-718-4872)
WX AWOS-3PT at TYQ (17 nm N): 120.725 (317-769-3154)
WX ASOS at GEZ (19 nm SE): 121.55 (317-398-0246)

Nearby radio navigation aids

VOR radial/distance  VOR name  Freq  Var
VHPr105/10.5BRICKYARD VORTAC116.3001E
SHBr297/17.0SHELBYVILLE VOR/DME116.1501E

 
NDB name  Hdg/Dist  Freq  Var  ID
METROPOLITAN207/11.333803WUMP ..- -- .--.
CRAWFORDSVILLE114/37.638804WCFJ -.-. ..-. .---
NEW CASTLE266/38.938506WUWL ..- .-- .-..

Heliport Services

Fuel available: A1+
A1+:SELF SERVE.
Parking: tiedowns
Airframe service: MINOR
MINOR REPAIRS - 317-487-5089.
Powerplant service: MINOR

Runway Information

Helipad H1

Dimensions: 60 x 60 ft. / 18 x 18 m
Surface: concrete, in good condition
Latitude: 39-45.952583N
Longitude: 086-08.932500W
Elevation: 732.0 ft.
Traffic pattern: leftleft
Markings: basic, in good condition
Visual slope indicator: non-standard VASI system
PULSATING APCH SLOPE INDICATOR; ON E APCH.
Approach lights: ODALS WB INGRESS
Runway end identifier lights: no

Heliport Ownership and Management from official FAA records

Ownership: Publicly-owned
Owner: INDIANAPOLIS ARPT AUTH
7800 COL. H. WEIR. COOK MEMORIAL DR
INDIANAPOLIS, IN 46241
Phone (317) 487-5022
Manager: KEITH BERLEN
7800 COL. H. WEIR. COOK MEMORIAL DR
INDIANAPOLIS, IN 46241
Phone (317) 487-5022

Heliport Operational Statistics

Aircraft based on the field: 1
Helicopters: 1
    
Aircraft operations: avg 33/week *
98% transient general aviation
1% military
1% air taxi
* for 12-month period ending 31 December 2019

Additional Remarks

FAC & ARPT REGS PER INDIANAPOLIS ARPT AUTH.
COORD INGRESS/EGRESS WITH INDIANAPOLIS APCH - 125.275; ARR & DEP E OR W HDG; RMN S OF HELI; UTILIZE RR & INTERSTATE FOR INGRESS/EGRESS.
NOISE ABATEMENT PROC IN EFCT - AMGR.
FOR CD CTC INDIANAPOLIS APCH AT 317-227-5743.
A52-H1 BLDG AREA NE LGTD.

Instrument Procedures

NOTE: All procedures below are presented as PDF files. If you need a reader for these files, you should download the free Adobe Reader.

NOT FOR NAVIGATION. Please procure official charts for flight.
FAA instrument procedures published for use from 01 December 2022 at 0901Z to 29 December 2022 at 0900z.

 
IAPs - Instrument Approach Procedures
COPTER RNAV (GPS) 291   download (227KB)
COPTER VOR/DME 287   download (233KB)

Other nearby airports with instrument procedures:

KIND - Indianapolis International Airport (7 nm SW)
KEYE - Eagle Creek Airpark (8 nm NW)
KHFY - Indy South Greenwood Airport (9 nm S)
KUMP - Indianapolis Metro Airport (11 nm NE)
KMQJ - Indianapolis Regional Airport (12 nm E)
2R2 - Hendricks County Airport-Gordon Graham Field (15 nm W)
KTYQ - Indianapolis Executive Airport (17 nm N)
KGEZ - Shelbyville Municipal Airport (19 nm SE)
 
Loc | Ops | Rwys | IFR | FBO | Links
Com | Nav | Svcs | Stats | Notes
Area around 8A4 (Indianapolis Downtown Heliport)
 
Road maps at: MapQuest Bing Google
 
Aerial photo
WARNING: Photo may not be current or correct
Aerial photo of 8A4 (Indianapolis Downtown Heliport)
Photo by Ellie Patton
Photo taken 06-Mar-2010

Do you have a better or more recent aerial photo of Indianapolis Downtown Heliport that you would like to share? If so, please send us your photo.

 
Sectional chart

 
Airport distance calculator
Flying to Indianapolis Downtown Heliport? Find the distance to fly.

From to 8A4

Sunrise and sunset
Times for 03-Dec-2022
 Local
(UTC-5)
 Zulu
(UTC)
Morning civil twilight07:2012:20
Sunrise07:5012:50
Sunset17:1922:19
Evening civil twilight17:4922:49

Current date and time
Zulu (UTC)  03-Dec-2022 15:22:39
Local (UTC-5)  03-Dec-2022 10:22:39
 
METAR
KIND 
7nm SW 
031454Z 30016KT 10SM CLR 01/M06 A3029 RMK AO2 PK WND 28026/1439 SLP259 T00061056 51051
KEYE 
8nm NW 
031453Z AUTO 29016G24KT 10SM CLR 00/M06 A3027 RMK AO2 PK WND 30029/1421 SLP256 T00001056 51051 $
KHFY 
9nm S 
031455Z AUTO 31012G19KT 10SM CLR 02/M04 A3028 RMK AO2 T00151040
KUMP 
11nm NE 
031455Z AUTO 30008G18KT 10SM CLR 00/M03 A3028 RMK AO2 T00011034
KMQJ 
13nm E 
031455Z AUTO 27013G21KT 10SM CLR M00/M05 A3027 RMK AO1
KTYQ 
17nm N 
031455Z AUTO 29016G22KT 10SM CLR M02/M06 A3028 RMK AO2 T10201065
KGEZ 
19nm SE 
031453Z AUTO 30019G25KT 10SM CLR 02/M06 A3026 RMK AO2 PK WND 30027/1432 SLP251 60001 T00221056 51059
TAF
KIND 
7nm SW 
031127Z 0312/0418 30018G32KT P6SM SCT040 TEMPO 0312/0313 OVC015 FM031500 31015G27KT P6SM FEW250 FM032200 30009KT P6SM FEW250 FM040800 VRB04KT P6SM BKN250
NOTAMs
Click for the latest NOTAMs
NOTAMs are issued by the DoD/FAA and will open in a separate window not controlled by AirNav.

 

 
 

FBO, Fuel Providers, and Aircraft Ground Support

  
 Business Name 
 
 Contact 
 
 Services / Description 
 
Fuel Prices
 
Comments
  
Indianapolis Airport Authority 317-955-1271
no information available

If you are affiliated with Indianapolis Airport Authority and would like to show here your services, contact info, web link, logo, and more, click here
Jet A
SS $3.41 
 Updated 17-Nov-2017
 
   1 read write
SS=Self service
Update Fuel Prices
 

Would you like to see your business listed on this page?

 If your business provides an interesting product or service to pilots, flight crews, aircraft, or users of the Indianapolis Downtown Heliport, you should consider listing it here.  To start the listing process, click on the button below
 
Add a business
 

Other Pages about Indianapolis Downtown Heliport

www.indianapolisairport.com/...
 
Update a link
 
Copyright © AirNav, LLC. All rights reserved. Privacy Policy  Contact